This demonstration page uses our WeatherBlox Daily Observations layout. Learn more.

Left ArrowRight Arrow

39.08367, -84.50855

Hourly Observations for March 6, 2019

Temp ( °F °C ) Dew Point ( °F °C ) Humidity (%) Winds ( mph kmh ) Pressure ( in mb ) Visibility ( mi km ) Precip ( " mm )
12:53 am 00:53 Partly Cloudy 18 -7.8 8 -13.3 65 65 WSW 12 19 30.36 1028 10 16 N/A
1:53 am 01:53 Mostly Clear 17 -8.3 8 -13.3 68 68 WSW 9 15 30.36 1028 10 16 N/A
2:53 am 02:53 Mostly Cloudy 18 -7.8 8 -13.3 65 65 WSW 12 19 30.37 1028 9 14 N/A
3:28 am 03:28 Cloudy with Light Snow 18 -7.8 10 -12.2 71 71 W 10 17 30.40 1029 3 4 N/A
3:34 am 03:34 Mostly Cloudy with Light Snow 17 -8.3 11 -11.7 77 77 VRB 6 9 30.40 1029 2 2 N/A
3:40 am 03:40 Mostly Cloudy with Light Snow 17 -8.3 9 -12.8 70 70 W 13 20 30.40 1029 3 5 N/A
3:53 am 03:53 Mostly Cloudy 18 -7.8 8 -13.3 65 65 W 12 19 30.37 1029 10 16 N/A
4:53 am 04:53 Mostly Cloudy 16 -8.9 5 -15 62 62 NW 8 13 30.38 1029 10 16 N/A
5:53 am 05:53 Clear 15 -9.4 4 -15.6 61 61 W 10 17 30.41 1030 10 16 N/A
6:53 am 06:53 Mostly Cloudy 16 -8.9 4 -15.6 59 59 W 13 20 30.42 1030 10 16 N/A
7:53 am 07:53 Mostly Cloudy 16 -8.9 5 -15 62 62 W 8 13 30.44 1031 10 16 N/A
8:53 am 08:53 Mostly Cloudy 18 -7.8 7 -13.9 62 62 WSW 12 19 30.46 1031 10 16 N/A
9:13 am 09:13 Mostly Cloudy 18 -7.8 7 -13.9 62 62 WSW 12 19 30.49 1032 10 16 N/A
9:53 am 09:53 Mostly Cloudy 18 -7.8 6 -14.4 59 59 W 12 19 30.48 1032 10 16 N/A
10:53 am 10:53 Mostly Cloudy 22 -5.6 8 -13.3 55 55 SW 15 24 30.48 1032 10 16 N/A
11:53 am 11:53 Partly Cloudy 23 -5 7 -13.9 50 50 W 12 19 30.46 1031 10 16 N/A
12:53 pm 12:53 Mostly Sunny 26 -3.3 8 -13.3 46 46 W 10 17 30.44 1031 10 16 N/A
1:53 pm 13:53 Sunny 28 -2.2 8 -13.3 43 43 W 9 15 30.40 1030 10 16 N/A
2:53 pm 14:53 Sunny 30 -1.1 8 -13.3 39 39 W 12 19 30.39 1029 10 16 N/A
3:53 pm 15:53 Sunny 30 -1.1 9 -12.8 41 41 WSW 10 17 30.39 1029 10 16 N/A
4:53 pm 16:53 Sunny 30 -1.1 9 -12.8 41 41 WSW 15 24 30.37 1029 10 16 N/A
5:53 pm 17:53 Sunny 29 -1.7 9 -12.8 43 43 SW 14 22 30.37 1029 10 16 N/A
6:53 pm 18:53 Clear 26 -3.3 10 -12.2 51 51 SW 8 13 30.36 1028 10 16 N/A
7:53 pm 19:53 Clear 26 -3.3 12 -11.1 55 55 SSW 5 7 30.35 1028 10 16 N/A
8:53 pm 20:53 Clear 26 -3.3 12 -11.1 55 55 SSW 5 7 30.36 1028 10 16 N/A
9:53 pm 21:53 Clear 25 -3.9 13 -10.6 60 60 WSW 6 9 30.36 1028 10 16 N/A
10:53 pm 22:53 Clear 28 -2.2 12 -11.1 51 51 WSW 9 15 30.37 1028 10 16 N/A
11:53 pm 23:53 Clear 27 -2.8 11 -11.7 51 51 WSW 10 17 30.36 1028 10 16 N/A

Powered by AerisWeather